2019-087F (44843 NORAD) Tracking and Keplerian Element Data

This shows tracking and keplerian element data for the satellite.

Feedback or suggestion? Click here.




ElementValue
Catalog44843
Name2019-087F
Epoch Orbit711
Epoch Day23.20900065
Epoch Year2020
RAAN181.8135
Inclination97.3771
Eccentricity0.001523
Argument of Perigee113.0383
Mean Anonmoly59.7392
Mean Motion15.21370245
Decay Rate4.83E-06
L11 44843U 19087F 20023.20900065 .00000483 00000-0 24546-4 0 9997
L22 44843 97.3771 181.8135 0015230 113.0383 59.7392 15.21370245 7110

Live tracking and technical data element details for 2019-087F (NORAD 44843). 2019-087F can be tracked NOW for your location showing map with azimuth and elevation plus other details from your city location.

Track the satellite on the map from your city or location and see movement details for azimuth, elevation, latitude, longitude, range, height, and movement on the map or in text.







IsCatalogInMostPopularTable: catalog: 44843, numindb: 7
Update: records affected: 1



GetName: 44843 2019-087F

Hit Count: updated at: Fri, 24 Jan 2020 14:05:06 GMT